| time (UTC) | temp C | wind direction | speed KPH | gust KPH | rain 1hr cm | rain 24hr cm | rain mn cm | humidity % | barometer mb |
| 20260901175831 | 17 | 129 | 0.0 | 0.0 | 0.00 | 0.10 | 0.03 | 91 | 1017.4 |
| 20260901175352 | 17 | 129 | 0.0 | 0.0 | 0.00 | 0.10 | 0.03 | 90 | 1017.3 |
| 20260901174814 | 17 | 129 | 0.0 | 0.0 | 0.00 | 0.10 | 0.03 | 90 | 1017.3 |
| 20260901174316 | 17 | 129 | 0.0 | 0.0 | 0.00 | 0.10 | 0.03 | 89 | 1017.2 |
| 20260901173822 | 17 | 129 | 0.0 | 0.0 | 0.00 | 0.10 | 0.03 | 89 | 1017.2 |
| 20260901173325 | 17 | 129 | 0.0 | 0.0 | 0.00 | 0.10 | 0.03 | 89 | 1017.2 |
| 20260901172848 | 17 | 129 | 0.0 | 0.0 | 0.00 | 0.10 | 0.03 | 89 | 1017.2 |
| 20260901172348 | 17 | 143 | 0.0 | 1.6 | 0.00 | 0.10 | 0.03 | 89 | 1017.3 |
| 20260901171827 | 17 | 143 | 0.0 | 1.6 | 0.00 | 0.10 | 0.03 | 89 | 1017.4 |
| 20260901171328 | 17 | 144 | 0.0 | 0.0 | 0.00 | 0.10 | 0.03 | 89 | 1017.4 |
| 20260901170829 | 17 | 143 | 0.0 | 1.6 | 0.00 | 0.10 | 0.03 | 89 | 1017.4 |
| 20260901170331 | 17 | 143 | 0.0 | 1.6 | 0.10 | 0.10 | 0.03 | 89 | 1017.4 |
| 20260901165814 | 17 | 135 | 0.0 | 3.2 | 0.10 | 0.10 | 0.03 | 89 | 1017.3 |
| 20260901165316 | 17 | 134 | 0.0 | 4.8 | 0.10 | 0.10 | 0.03 | 89 | 1017.3 |
| 20260901164817 | 17 | 133 | 1.6 | 4.8 | 0.10 | 0.10 | 0.03 | 88 | 1017.2 |
| 20260901164318 | 17 | 128 | 0.0 | 1.6 | 0.10 | 0.10 | 0.03 | 88 | 1017.2 |
| 20260901163819 | 17 | 101 | 0.0 | 4.8 | 0.10 | 0.10 | 0.03 | 87 | 1017.3 |
| 20260901163335 | 18 | 68 | 1.6 | 4.8 | 0.10 | 0.10 | 0.03 | 86 | 1017.3 |
| 20260901162817 | 18 | 120 | 1.6 | 3.2 | 0.10 | 0.10 | 0.03 | 86 | 1017.3 |
| 20260901162319 | 18 | 349 | 0.0 | 1.6 | 0.10 | 0.10 | 0.03 | 86 | 1017.3 |
| 20260901161819 | 18 | 349 | 0.0 | 3.2 | 0.10 | 0.10 | 0.03 | 86 | 1017.3 |
| 20260901161320 | 18 | 349 | 0.0 | 4.8 | 0.10 | 0.10 | 0.03 | 88 | 1017.3 |
| 20260901160819 | 18 | 241 | 1.6 | 4.8 | 0.10 | 0.10 | 0.03 | 86 | 1017.4 |
| 20260901160339 | 17 | 263 | 0.0 | 8.0 | 0.00 | 0.00 | 0.00 | 86 | 1017.4 |
| 20260901155840 | 18 | 25 | 1.6 | 14.5 | 0.00 | 0.00 | 0.00 | 85 | 1017.4 |
| 20260901155322 | 18 | 39 | 4.8 | 17.7 | 0.00 | 0.00 | 0.00 | 82 | 1017.3 |
| 20260901154824 | 19 | 38 | 8.0 | 37.0 | 0.00 | 0.00 | 0.00 | 78 | 1017.3 |
| 20260901154327 | 20 | 51 | 16.1 | 37.0 | 0.00 | 0.00 | 0.00 | 74 | 1017.4 |
| 20260901153830 | 21 | 329 | 3.2 | 16.1 | 0.00 | 0.00 | 0.00 | 67 | 1017.2 |
| 20260901153332 | 21 | 257 | 6.4 | 17.7 | 0.00 | 0.00 | 0.00 | 67 | 1017.1 |
| 20260901152815 | 21 | 291 | 6.4 | 24.1 | 0.00 | 0.00 | 0.00 | 69 | 1017.0 |
| 20260901152317 | 21 | 248 | 8.0 | 22.5 | 0.00 | 0.00 | 0.00 | 68 | 1017.0 |
| 20260901151820 | 21 | 245 | 6.4 | 12.9 | 0.00 | 0.00 | 0.00 | 67 | 1016.9 |
| 20260901151322 | 21 | 267 | 3.2 | 11.3 | 0.00 | 0.00 | 0.00 | 67 | 1016.9 |
| 20260901150823 | 21 | 276 | 6.4 | 12.9 | 0.00 | 0.00 | 0.00 | 67 | 1016.9 |
| 20260901150326 | 21 | 257 | 4.8 | 12.9 | 0.00 | 0.00 | 0.00 | 67 | 1017.0 |
| 20260901145848 | 22 | 269 | 4.8 | 17.7 | 0.00 | 0.00 | 0.00 | 67 | 1017.1 |
| 20260901145330 | 22 | 271 | 4.8 | 14.5 | 0.00 | 0.00 | 0.00 | 64 | 1017.1 |
| 20260901144812 | 22 | 281 | 4.8 | 14.5 | 0.00 | 0.00 | 0.00 | 63 | 1017.0 |
| 20260901144334 | 22 | 264 | 3.2 | 14.5 | 0.00 | 0.00 | 0.00 | 63 | 1017.0 |
| 20260901143816 | 22 | 269 | 6.4 | 11.3 | 0.00 | 0.00 | 0.00 | 64 | 1017.0 |
| 20260901143318 | 22 | 245 | 3.2 | 8.0 | 0.00 | 0.00 | 0.00 | 63 | 1017.1 |
| 20260901142820 | 22 | 267 | 1.6 | 14.5 | 0.00 | 0.00 | 0.00 | 64 | 1017.0 |
| 20260901142325 | 22 | 238 | 6.4 | 17.7 | 0.00 | 0.00 | 0.00 | 62 | 1017.1 |
| 20260901141849 | 22 | 262 | 8.0 | 19.3 | 0.00 | 0.00 | 0.00 | 61 | 1017.1 |
| 20260901141332 | 23 | 276 | 6.4 | 19.3 | 0.00 | 0.00 | 0.00 | 63 | 1017.1 |
| 20260901140814 | 23 | 328 | 4.8 | 11.3 | 0.00 | 0.00 | 0.00 | 64 | 1017.2 |
| 20260901140314 | 22 | 334 | 4.8 | 9.7 | 0.00 | 0.00 | 0.00 | 65 | 1017.2 |
| 20260901135814 | 22 | 262 | 3.2 | 8.0 | 0.00 | 0.00 | 0.00 | 66 | 1017.2 |
| 20260901135317 | 22 | 269 | 3.2 | 8.0 | 0.00 | 0.00 | 0.00 | 67 | 1017.3 |
| 20260901134819 | 22 | 267 | 1.6 | 17.7 | 0.00 | 0.00 | 0.00 | 68 | 1017.3 |
| 20260901134321 | 22 | 270 | 6.4 | 17.7 | 0.00 | 0.00 | 0.00 | 67 | 1017.4 |
| 20260901133821 | 21 | 257 | 4.8 | 12.9 | 0.00 | 0.00 | 0.00 | 67 | 1017.4 |
| 20260901133321 | 21 | 263 | 6.4 | 19.3 | 0.00 | 0.00 | 0.00 | 68 | 1017.4 |
| 20260901132821 | 21 | 261 | 8.0 | 19.3 | 0.00 | 0.00 | 0.00 | 67 | 1017.4 |
| 20260901132342 | 22 | 269 | 4.8 | 11.3 | 0.00 | 0.00 | 0.00 | 67 | 1017.5 |
| 20260901131842 | 21 | 210 | 4.8 | 12.9 | 0.00 | 0.00 | 0.00 | 68 | 1017.5 |
| 20260901131326 | 21 | 257 | 8.0 | 17.7 | 0.00 | 0.00 | 0.00 | 68 | 1017.5 |
| 20260901130849 | 21 | 236 | 8.0 | 22.5 | 0.00 | 0.00 | 0.00 | 68 | 1017.5 |
| 20260901130332 | 21 | 280 | 6.4 | 22.5 | 0.00 | 0.00 | 0.00 | 68 | 1017.5 |
| 20260901125813 | 21 | 274 | 11.3 | 25.7 | 0.00 | 0.00 | 0.00 | 67 | 1017.5 |
| 20260901125315 | 21 | 276 | 9.7 | 25.7 | 0.00 | 0.00 | 0.00 | 67 | 1017.5 |
| 20260901124819 | 21 | 277 | 12.9 | 25.7 | 0.00 | 0.00 | 0.00 | 68 | 1017.5 |
| 20260901124342 | 21 | 245 | 6.4 | 24.1 | 0.00 | 0.00 | 0.00 | 70 | 1017.5 |
| 20260901123843 | 21 | 231 | 9.7 | 24.1 | 0.00 | 0.00 | 0.00 | 72 | 1017.6 |
| 20260901123326 | 21 | 277 | 6.4 | 17.7 | 0.00 | 0.00 | 0.00 | 73 | 1017.7 |
| 20260901122849 | 20 | 274 | 6.4 | 17.7 | 0.00 | 0.00 | 0.00 | 73 | 1017.8 |
| 20260901122328 | 20 | 264 | 6.4 | 27.4 | 0.00 | 0.00 | 0.00 | 74 | 1017.8 |
| 20260901121844 | 20 | 214 | 12.9 | 27.4 | 0.00 | 0.00 | 0.00 | 74 | 1017.8 |
| 20260901121324 | 20 | 271 | 14.5 | 27.4 | 0.00 | 0.00 | 0.00 | 73 | 1017.9 |
| 20260901120823 | 20 | 272 | 11.3 | 22.5 | 0.00 | 0.00 | 0.00 | 71 | 1017.7 |
| 20260901120324 | 21 | 242 | 8.0 | 22.5 | 0.00 | 0.00 | 0.00 | 68 | 1017.7 |
| 20260901115827 | 21 | 244 | 4.8 | 12.9 | 0.00 | 0.00 | 0.00 | 68 | 1017.6 |
| 20260901115330 | 21 | 272 | 6.4 | 12.9 | 0.00 | 0.00 | 0.00 | 67 | 1017.6 |
| 20260901114853 | 21 | 267 | 4.8 | 14.5 | 0.00 | 0.00 | 0.00 | 67 | 1017.6 |
| 20260901114331 | 21 | 271 | 6.4 | 20.9 | 0.00 | 0.00 | 0.00 | 67 | 1017.7 |
| 20260901113834 | 21 | 282 | 11.3 | 20.9 | 0.00 | 0.00 | 0.00 | 66 | 1017.7 |
| 20260901113316 | 21 | 266 | 8.0 | 20.9 | 0.00 | 0.00 | 0.00 | 67 | 1017.7 |
| 20260901112816 | 21 | 322 | 9.7 | 20.9 | 0.00 | 0.00 | 0.00 | 65 | 1017.6 |
| 20260901112338 | 21 | 283 | 11.3 | 19.3 | 0.00 | 0.00 | 0.00 | 65 | 1017.6 |
| 20260901111821 | 21 | 266 | 9.7 | 22.5 | 0.00 | 0.00 | 0.00 | 66 | 1017.6 |
| 20260901111323 | 21 | 175 | 12.9 | 24.1 | 0.00 | 0.00 | 0.00 | 65 | 1017.6 |
| 20260901110825 | 21 | 218 | 11.3 | 24.1 | 0.00 | 0.00 | 0.00 | 66 | 1017.7 |
| 20260901110329 | 21 | 319 | 11.3 | 24.1 | 0.00 | 0.00 | 0.00 | 65 | 1017.6 |
| 20260901105831 | 21 | 272 | 12.9 | 24.1 | 0.00 | 0.00 | 0.00 | 66 | 1017.6 |
| 20260901105335 | 21 | 267 | 8.0 | 32.2 | 0.00 | 0.00 | 0.00 | 67 | 1017.6 |
| 20260901104814 | 21 | 218 | 14.5 | 32.2 | 0.00 | 0.00 | 0.00 | 68 | 1017.6 |
| 20260901104337 | 21 | 226 | 17.7 | 30.6 | 0.00 | 0.00 | 0.00 | 68 | 1017.6 |
| 20260901103817 | 21 | 284 | 11.3 | 35.4 | 0.00 | 0.00 | 0.00 | 67 | 1017.6 |
| 20260901103318 | 21 | 295 | 16.1 | 35.4 | 0.00 | 0.00 | 0.00 | 67 | 1017.6 |
| 20260901102820 | 21 | 277 | 11.3 | 24.1 | 0.00 | 0.00 | 0.00 | 68 | 1017.6 |
| 20260901102319 | 21 | 273 | 9.7 | 35.4 | 0.00 | 0.00 | 0.00 | 67 | 1017.6 |
| 20260901101820 | 20 | 262 | 12.9 | 35.4 | 0.00 | 0.00 | 0.00 | 68 | 1017.5 |
| 20260901101321 | 20 | 240 | 17.7 | 25.7 | 0.00 | 0.00 | 0.00 | 67 | 1017.5 |
| 20260901100821 | 20 | 231 | 12.9 | 20.9 | 0.00 | 0.00 | 0.00 | 69 | 1017.5 |
| 20260901100323 | 20 | 197 | 8.0 | 24.1 | 0.00 | 0.00 | 0.00 | 70 | 1017.6 |
| 20260901095826 | 20 | 311 | 9.7 | 27.4 | 0.00 | 0.00 | 0.00 | 69 | 1017.5 |
| 20260901095330 | 20 | 281 | 11.3 | 27.4 | 0.00 | 0.00 | 0.00 | 70 | 1017.6 |
| 20260901094812 | 20 | 296 | 12.9 | 30.6 | 0.00 | 0.00 | 0.00 | 70 | 1017.4 |
| 20260901094314 | 20 | 265 | 11.3 | 33.8 | 0.00 | 0.00 | 0.00 | 70 | 1017.4 |
| 20260901093814 | 20 | 268 | 22.5 | 33.8 | 0.00 | 0.00 | 0.00 | 68 | 1017.4 |
| 20260901093333 | 20 | 259 | 11.3 | 35.4 | 0.00 | 0.00 | 0.00 | 70 | 1017.3 |
| 20260901092813 | 20 | 293 | 14.5 | 41.8 | 0.00 | 0.00 | 0.00 | 69 | 1017.4 |
| 20260901092312 | 20 | 249 | 17.7 | 41.8 | 0.00 | 0.00 | 0.00 | 69 | 1017.2 |
| 20260901091832 | 20 | 284 | 16.1 | 30.6 | 0.00 | 0.00 | 0.00 | 69 | 1017.2 |
| 20260901091332 | 19 | 271 | 17.7 | 32.2 | 0.00 | 0.00 | 0.00 | 71 | 1017.3 |
| 20260901090813 | 19 | 281 | 14.5 | 33.8 | 0.00 | 0.00 | 0.00 | 72 | 1017.2 |
| 20260901090316 | 18 | 290 | 19.3 | 33.8 | 0.00 | 0.00 | 0.00 | 72 | 1017.2 |
| 20260901085818 | 18 | 269 | 11.3 | 19.3 | 0.00 | 0.00 | 0.00 | 74 | 1017.2 |
| 20260901085320 | 18 | 243 | 4.8 | 22.5 | 0.00 | 0.00 | 0.00 | 76 | 1017.1 |
| 20260901084823 | 18 | 262 | 8.0 | 22.5 | 0.00 | 0.00 | 0.00 | 76 | 1017.1 |
| 20260901084345 | 18 | 252 | 8.0 | 24.1 | 0.00 | 0.00 | 0.00 | 77 | 1017.1 |
| 20260901083825 | 18 | 271 | 14.5 | 24.1 | 0.00 | 0.00 | 0.00 | 77 | 1017.1 |
| 20260901083327 | 18 | 293 | 11.3 | 27.4 | 0.00 | 0.00 | 0.00 | 79 | 1017.1 |
| 20260901082831 | 18 | 278 | 11.3 | 20.9 | 0.00 | 0.00 | 0.00 | 79 | 1017.1 |
| 20260901082312 | 17 | 268 | 4.8 | 16.1 | 0.00 | 0.00 | 0.00 | 80 | 1017.1 |
| 20260901081843 | 17 | 267 | 6.4 | 25.7 | 0.00 | 0.00 | 0.00 | 80 | 1017.0 |
| 20260901081325 | 17 | 267 | 14.5 | 25.7 | 0.00 | 0.00 | 0.00 | 80 | 1017.0 |
| 20260901080826 | 17 | 276 | 9.7 | 20.9 | 0.00 | 0.00 | 0.00 | 80 | 1017.0 |
| 20260901080327 | 17 | 255 | 8.0 | 20.9 | 0.00 | 0.00 | 0.00 | 81 | 1016.9 |
| 20260901075826 | 17 | 263 | 8.0 | 20.9 | 0.00 | 0.00 | 0.00 | 81 | 1016.9 |
| 20260901075326 | 17 | 229 | 12.9 | 20.9 | 0.00 | 0.00 | 0.00 | 81 | 1016.8 |
| 20260901074828 | 17 | 262 | 8.0 | 20.9 | 0.00 | 0.00 | 0.00 | 82 | 1016.8 |
| 20260901074329 | 17 | 257 | 8.0 | 17.7 | 0.00 | 0.00 | 0.00 | 82 | 1016.8 |
| 20260901073829 | 17 | 275 | 8.0 | 20.9 | 0.00 | 0.00 | 0.00 | 82 | 1016.8 |
| 20260901073330 | 17 | 266 | 11.3 | 20.9 | 0.00 | 0.00 | 0.00 | 82 | 1016.7 |
| 20260901072831 | 16 | 274 | 12.9 | 20.9 | 0.00 | 0.00 | 0.00 | 83 | 1016.7 |
| 20260901072332 | 16 | 255 | 8.0 | 20.9 | 0.00 | 0.00 | 0.00 | 83 | 1016.6 |
| 20260901071813 | 16 | 276 | 9.7 | 20.9 | 0.00 | 0.00 | 0.00 | 84 | 1016.5 |
| 20260901071316 | 16 | 274 | 11.3 | 20.9 | 0.00 | 0.00 | 0.00 | 84 | 1016.5 |
| 20260901070820 | 16 | 233 | 11.3 | 22.5 | 0.00 | 0.00 | 0.00 | 84 | 1016.4 |
| 20260901070323 | 16 | 241 | 6.4 | 24.1 | 0.00 | 0.00 | 0.00 | 84 | 1016.4 |
| 20260901065825 | 16 | 238 | 11.3 | 24.1 | 0.00 | 0.00 | 0.00 | 84 | 1016.4 |
| 20260901065328 | 16 | 268 | 12.9 | 25.7 | 0.00 | 0.00 | 0.00 | 83 | 1016.4 |
| 20260901064832 | 16 | 256 | 14.5 | 25.7 | 0.00 | 0.00 | 0.00 | 83 | 1016.3 |
| 20260901064334 | 16 | 288 | 11.3 | 24.1 | 0.00 | 0.00 | 0.00 | 84 | 1016.3 |
| 20260901063815 | 16 | 267 | 11.3 | 25.7 | 0.00 | 0.00 | 0.00 | 84 | 1016.2 |
| 20260901063316 | 16 | 262 | 12.9 | 25.7 | 0.00 | 0.00 | 0.00 | 83 | 1016.3 |
| 20260901062817 | 16 | 231 | 11.3 | 22.5 | 0.00 | 0.00 | 0.00 | 83 | 1016.2 |
| 20260901062316 | 16 | 267 | 12.9 | 22.5 | 0.00 | 0.00 | 0.00 | 84 | 1016.2 |
| 20260901061819 | 16 | 241 | 9.7 | 19.3 | 0.00 | 0.00 | 0.00 | 84 | 1016.1 |
| 20260901061321 | 16 | 243 | 11.3 | 19.3 | 0.00 | 0.00 | 0.00 | 84 | 1016.1 |
| 20260901060844 | 16 | 243 | 9.7 | 24.1 | 0.00 | 0.00 | 0.00 | 84 | 1016.0 |
| 20260901060324 | 16 | 279 | 14.5 | 24.1 | 0.00 | 0.00 | 0.00 | 84 | 1016.0 |
| 20260901055846 | 16 | 157 | 9.7 | 22.5 | 0.00 | 0.00 | 0.00 | 84 | 1016.0 |
| 20260901055348 | 16 | 248 | 8.0 | 25.7 | 0.00 | 0.00 | 0.00 | 84 | 1015.9 |
| 20260901054829 | 16 | 267 | 12.9 | 25.7 | 0.00 | 0.00 | 0.00 | 84 | 1015.8 |
| 20260901054348 | 16 | 244 | 11.3 | 20.9 | 0.00 | 0.00 | 0.00 | 84 | 1015.8 |
| 20260901053813 | 16 | 257 | 11.3 | 24.1 | 0.00 | 0.00 | 0.00 | 84 | 1015.7 |
| 20260901053315 | 16 | 229 | 12.9 | 24.1 | 0.00 | 0.00 | 0.00 | 84 | 1015.7 |
| 20260901052818 | 15 | 252 | 8.0 | 24.1 | 0.00 | 0.00 | 0.00 | 85 | 1015.7 |
| 20260901052322 | 15 | 259 | 14.5 | 24.1 | 0.00 | 0.00 | 0.00 | 85 | 1015.6 |
| 20260901051827 | 15 | 207 | 8.0 | 24.1 | 0.00 | 0.00 | 0.00 | 85 | 1015.5 |
| 20260901051330 | 15 | 259 | 9.7 | 19.3 | 0.00 | 0.00 | 0.00 | 85 | 1015.6 |
| 20260901050831 | 15 | 240 | 8.0 | 20.9 | 0.00 | 0.00 | 0.00 | 85 | 1015.4 |
| 20260901050312 | 15 | 239 | 12.9 | 20.9 | 0.00 | 0.00 | 0.00 | 85 | 1015.4 |
| 20260901045813 | 15 | 286 | 8.0 | 19.3 | 0.00 | 0.00 | 0.00 | 85 | 1015.3 |
| 20260901045335 | 15 | 262 | 8.0 | 25.7 | 0.00 | 0.00 | 0.00 | 85 | 1015.3 |
| 20260901044831 | 15 | 256 | 12.9 | 25.7 | 0.00 | 0.00 | 0.00 | 85 | 1015.2 |
| 20260901044330 | 15 | 30 | 11.3 | 25.7 | 0.00 | 0.00 | 0.00 | 85 | 1015.1 |
| 20260901043831 | 15 | 276 | 11.3 | 25.7 | 0.00 | 0.00 | 0.00 | 85 | 1015.1 |
| 20260901043332 | 15 | 264 | 9.7 | 27.4 | 0.00 | 0.00 | 0.00 | 85 | 1014.9 |
| 20260901042832 | 15 | 264 | 12.9 | 27.4 | 0.00 | 0.00 | 0.00 | 84 | 1014.9 |
| 20260901042332 | 15 | 266 | 11.3 | 20.9 | 0.00 | 0.00 | 0.00 | 84 | 1014.8 |
| 20260901041814 | 15 | 247 | 8.0 | 19.3 | 0.00 | 0.00 | 0.00 | 84 | 1014.8 |
| 20260901041315 | 15 | 233 | 9.7 | 17.7 | 0.00 | 0.00 | 0.00 | 85 | 1014.7 |
| 20260901040815 | 15 | 265 | 9.7 | 22.5 | 0.00 | 0.00 | 0.00 | 84 | 1014.7 |
| 20260901040318 | 15 | 257 | 8.0 | 22.5 | 0.00 | 0.00 | 0.00 | 84 | 1014.6 |
| 20260901035822 | 15 | 300 | 9.7 | 20.9 | 0.00 | 0.00 | 0.00 | 84 | 1014.6 |
| 20260901035323 | 15 | 219 | 9.7 | 20.9 | 0.00 | 0.00 | 0.00 | 84 | 1014.6 |
| 20260901034825 | 15 | 259 | 6.4 | 22.5 | 0.00 | 0.00 | 0.00 | 84 | 1014.5 |
| 20260901034325 | 15 | 247 | 8.0 | 22.5 | 0.00 | 0.00 | 0.00 | 84 | 1014.5 |
| 20260901033846 | 15 | 255 | 11.3 | 19.3 | 0.00 | 0.00 | 0.00 | 83 | 1014.4 |
| 20260901033328 | 16 | 217 | 8.0 | 16.1 | 0.00 | 0.00 | 0.00 | 83 | 1014.3 |
| 20260901032831 | 16 | 238 | 8.0 | 20.9 | 0.00 | 0.00 | 0.00 | 83 | 1014.4 |
| 20260901032314 | 16 | 228 | 12.9 | 20.9 | 0.00 | 0.00 | 0.00 | 83 | 1014.4 |
| 20260901031815 | 16 | 260 | 6.4 | 20.9 | 0.00 | 0.00 | 0.00 | 82 | 1014.4 |
| 20260901031318 | 16 | 226 | 8.0 | 20.9 | 0.00 | 0.00 | 0.00 | 82 | 1014.4 |
| 20260901030822 | 16 | 267 | 9.7 | 22.5 | 0.00 | 0.00 | 0.00 | 82 | 1014.4 |
| 20260901030323 | 16 | 275 | 9.7 | 22.5 | 0.00 | 0.00 | 0.00 | 82 | 1014.4 |
| 20260901025826 | 16 | 233 | 12.9 | 22.5 | 0.00 | 0.00 | 0.00 | 82 | 1014.3 |
| 20260901025329 | 16 | 278 | 11.3 | 24.1 | 0.00 | 0.00 | 0.00 | 82 | 1014.3 |
| 20260901024813 | 16 | 198 | 11.3 | 24.1 | 0.00 | 0.00 | 0.00 | 82 | 1014.3 |
| 20260901024315 | 16 | 243 | 9.7 | 17.7 | 0.00 | 0.00 | 0.00 | 82 | 1014.3 |
| 20260901023817 | 16 | 255 | 8.0 | 22.5 | 0.00 | 0.00 | 0.00 | 82 | 1014.2 |
| 20260901023340 | 16 | 231 | 9.7 | 22.5 | 0.00 | 0.00 | 0.00 | 82 | 1014.3 |
| 20260901022842 | 16 | 262 | 11.3 | 19.3 | 0.00 | 0.00 | 0.00 | 82 | 1014.3 |
| 20260901022324 | 16 | 245 | 11.3 | 20.9 | 0.00 | 0.00 | 0.00 | 82 | 1014.4 |
| 20260901021827 | 16 | 187 | 8.0 | 20.9 | 0.00 | 0.00 | 0.00 | 82 | 1014.3 |
| 20260901021349 | 16 | 238 | 9.7 | 20.9 | 0.00 | 0.00 | 0.00 | 82 | 1014.3 |
| 20260901020828 | 16 | 272 | 9.7 | 19.3 | 0.00 | 0.00 | 0.00 | 82 | 1014.2 |
| 20260901020332 | 16 | 259 | 11.3 | 19.3 | 0.00 | 0.00 | 0.00 | 82 | 1014.2 |
| 20260901015814 | 16 | 236 | 6.4 | 20.9 | 0.00 | 0.00 | 0.00 | 82 | 1014.3 |
| 20260901015314 | 16 | 235 | 8.0 | 16.1 | 0.00 | 0.00 | 0.00 | 82 | 1014.3 |
| 20260901014817 | 16 | 283 | 6.4 | 16.1 | 0.00 | 0.00 | 0.00 | 82 | 1014.2 |
| 20260901014320 | 16 | 207 | 6.4 | 11.3 | 0.00 | 0.00 | 0.00 | 82 | 1014.3 |
| 20260901013824 | 16 | 229 | 6.4 | 17.7 | 0.00 | 0.00 | 0.00 | 81 | 1014.3 |
| 20260901013328 | 16 | 250 | 9.7 | 17.7 | 0.00 | 0.00 | 0.00 | 81 | 1014.3 |
| 20260901012831 | 16 | 256 | 6.4 | 17.7 | 0.00 | 0.00 | 0.00 | 81 | 1014.3 |
| 20260901012335 | 16 | 206 | 8.0 | 17.7 | 0.00 | 0.00 | 0.00 | 81 | 1014.4 |
| 20260901011814 | 16 | 271 | 11.3 | 17.7 | 0.00 | 0.00 | 0.00 | 81 | 1014.5 |
| 20260901011316 | 16 | 250 | 8.0 | 17.7 | 0.00 | 0.00 | 0.00 | 81 | 1014.5 |
| 20260901010815 | 16 | 243 | 6.4 | 14.5 | 0.00 | 0.00 | 0.00 | 80 | 1014.5 |
| 20260901010335 | 16 | 235 | 6.4 | 12.9 | 0.00 | 0.00 | 0.00 | 80 | 1014.5 |
| 20260901005814 | 16 | 220 | 6.4 | 11.3 | 0.00 | 0.00 | 0.00 | 80 | 1014.5 |
| 20260901005335 | 16 | 259 | 6.4 | 11.3 | 0.00 | 0.00 | 0.00 | 80 | 1014.5 |
| 20260901004815 | 16 | 228 | 4.8 | 14.5 | 0.00 | 0.00 | 0.00 | 80 | 1014.4 |
| 20260901004318 | 16 | 214 | 4.8 | 19.3 | 0.00 | 0.00 | 0.00 | 79 | 1014.4 |
| 20260901003841 | 16 | 281 | 4.8 | 16.1 | 0.00 | 0.00 | 0.00 | 79 | 1014.3 |
| 20260901003323 | 16 | 239 | 9.7 | 16.1 | 0.00 | 0.00 | 0.00 | 79 | 1014.3 |
| 20260901002817 | 16 | 266 | 8.0 | 16.1 | 0.00 | 0.00 | 0.00 | 79 | 1014.3 |
| 20260901002318 | 16 | 252 | 6.4 | 16.1 | 0.00 | 0.00 | 0.00 | 79 | 1014.3 |
| 20260901001818 | 17 | 281 | 9.7 | 17.7 | 0.00 | 0.00 | 0.00 | 79 | 1014.3 |
| 20260901001320 | 17 | 254 | 9.7 | 20.9 | 0.00 | 0.00 | 0.00 | 79 | 1014.3 |
| 20260901000822 | 17 | 244 | 6.4 | 20.9 | 0.00 | 0.00 | 0.00 | 79 | 1014.2 |
| 20260901000323 | 17 | 269 | 9.7 | 27.4 | 0.00 | 0.00 | 0.00 | 78 | 1014.2 |
| 20260831235825 | 17 | 281 | 11.3 | 27.4 | 0.00 | 0.00 | 0.00 | 78 | 1014.1 |
| 20260831235328 | 17 | 189 | 8.0 | 20.9 | 0.00 | 0.00 | 0.00 | 78 | 1014.1 |
| 20260831234822 | 17 | 267 | 9.7 | 20.9 | 0.00 | 0.00 | 0.00 | 78 | 1014.1 |
| 20260831234324 | 17 | 288 | 6.4 | 19.3 | 0.00 | 0.00 | 0.00 | 79 | 1014.2 |
| 20260831233826 | 17 | 257 | 6.4 | 17.7 | 0.00 | 0.00 | 0.00 | 79 | 1014.0 |
| 20260831233327 | 17 | 263 | 9.7 | 17.7 | 0.00 | 0.00 | 0.00 | 79 | 1014.2 |
| 20260831232828 | 17 | 277 | 8.0 | 20.9 | 0.00 | 0.00 | 0.00 | 79 | 1014.1 |
| 20260831232329 | 17 | 258 | 11.3 | 20.9 | 0.00 | 0.00 | 0.00 | 79 | 1014.0 |
| 20260831231813 | 17 | 255 | 9.7 | 22.5 | 0.00 | 0.00 | 0.00 | 78 | 1013.9 |
| 20260831231315 | 17 | 277 | 6.4 | 20.9 | 0.00 | 0.00 | 0.00 | 79 | 1013.9 |
| 20260831230819 | 17 | 233 | 9.7 | 22.5 | 0.00 | 0.00 | 0.00 | 79 | 1014.0 |
| 20260831230342 | 17 | 226 | 8.0 | 19.3 | 0.00 | 0.00 | 0.00 | 79 | 1013.9 |
| 20260831225823 | 17 | 279 | 11.3 | 22.5 | 0.00 | 0.00 | 0.00 | 79 | 1013.9 |
| 20260831225324 | 17 | 284 | 11.3 | 25.7 | 0.00 | 0.00 | 0.00 | 79 | 1013.8 |
| 20260831224825 | 17 | 274 | 11.3 | 25.7 | 0.00 | 0.00 | 0.00 | 79 | 1013.8 |
| 20260831224325 | 17 | 273 | 8.0 | 16.1 | 0.00 | 0.00 | 0.00 | 79 | 1013.6 |
| 20260831223826 | 17 | 264 | 8.0 | 14.5 | 0.00 | 0.00 | 0.00 | 80 | 1013.6 |
| 20260831223327 | 16 | 267 | 4.8 | 16.1 | 0.00 | 0.00 | 0.00 | 80 | 1013.5 |
| 20260831222828 | 16 | 267 | 3.2 | 9.7 | 0.00 | 0.00 | 0.00 | 81 | 1013.4 |
| 20260831222328 | 16 | 278 | 3.2 | 8.0 | 0.00 | 0.00 | 0.00 | 82 | 1013.4 |
| 20260831221829 | 16 | 254 | 4.8 | 8.0 | 0.00 | 0.00 | 0.00 | 84 | 1013.3 |
| 20260831221330 | 15 | 260 | 1.6 | 3.2 | 0.00 | 0.00 | 0.00 | 85 | 1013.4 |
| 20260831220846 | 15 | 259 | 0.0 | 1.6 | 0.00 | 0.00 | 0.00 | 86 | 1013.4 |
| 20260831220325 | 15 | 266 | 0.0 | 0.0 | 0.00 | 0.00 | 0.00 | 86 | 1013.3 |
| 20260831215825 | 15 | 266 | 0.0 | 0.0 | 0.00 | 0.00 | 0.00 | 85 | 1013.3 |
| 20260831215325 | 15 | 266 | 0.0 | 0.0 | 0.00 | 0.00 | 0.00 | 84 | 1013.4 |
| 20260831214826 | 15 | 266 | 0.0 | 0.0 | 0.00 | 0.00 | 0.00 | 83 | 1013.3 |
| 20260831214348 | 15 | 266 | 0.0 | 0.0 | 0.00 | 0.00 | 0.00 | 83 | 1013.1 |
| 20260831213832 | 15 | 266 | 0.0 | 0.0 | 0.00 | 0.00 | 0.00 | 82 | 1013.1 |
| 20260831213335 | 16 | 266 | 0.0 | 0.0 | 0.00 | 0.00 | 0.00 | 82 | 1013.0 |
| 20260831212859 | 16 | 266 | 0.0 | 0.0 | 0.00 | 0.00 | 0.00 | 82 | 1013.2 |
| 20260831212322 | 16 | 266 | 0.0 | 0.0 | 0.00 | 0.00 | 0.00 | 82 | 1013.2 |
| 20260831211825 | 16 | 266 | 0.0 | 1.6 | 0.00 | 0.00 | 0.00 | 81 | 1013.3 |
| 20260831211349 | 16 | 266 | 0.0 | 1.6 | 0.00 | 0.00 | 0.00 | 81 | 1013.2 |
| 20260831210830 | 16 | 266 | 0.0 | 3.2 | 0.00 | 0.00 | 0.00 | 80 | 1013.2 |
| 20260831210332 | 16 | 266 | 1.6 | 6.4 | 0.00 | 0.00 | 0.00 | 80 | 1013.3 |
| 20260831205812 | 17 | 264 | 3.2 | 8.0 | 0.00 | 0.00 | 0.00 | 79 | 1013.2 |
| 20260831205312 | 17 | 261 | 3.2 | 9.7 | 0.00 | 0.00 | 0.00 | 79 | 1013.2 |
| 20260831204814 | 17 | 265 | 4.8 | 9.7 | 0.00 | 0.00 | 0.00 | 79 | 1013.3 |
| 20260831204314 | 17 | 262 | 1.6 | 9.7 | 0.00 | 0.00 | 0.00 | 79 | 1013.1 |
| 20260831203835 | 17 | 267 | 3.2 | 11.3 | 0.00 | 0.00 | 0.00 | 79 | 1013.0 |
| 20260831203314 | 17 | 257 | 8.0 | 11.3 | 0.00 | 0.00 | 0.00 | 78 | 1013.1 |
| 20260831202815 | 17 | 257 | 3.2 | 11.3 | 0.00 | 0.00 | 0.00 | 78 | 1012.9 |
| 20260831202316 | 17 | 275 | 3.2 | 12.9 | 0.00 | 0.00 | 0.00 | 77 | 1013.0 |
| 20260831201820 | 17 | 245 | 6.4 | 12.9 | 0.00 | 0.00 | 0.00 | 76 | 1012.9 |
| 20260831201320 | 18 | 18 | 4.8 | 14.5 | 0.00 | 0.00 | 0.00 | 76 | 1012.7 |
| 20260831200838 | 18 | 271 | 4.8 | 22.5 | 0.00 | 0.00 | 0.00 | 76 | 1012.7 |
| 20260831200317 | 18 | 298 | 11.3 | 22.5 | 0.00 | 0.00 | 0.00 | 75 | 1013.0 |
| 20260831195817 | 19 | 252 | 9.7 | 20.9 | 0.00 | 0.00 | 0.00 | 72 | 1013.1 |
| 20260831195337 | 19 | 334 | 6.4 | 12.9 | 0.00 | 0.00 | 0.00 | 70 | 1013.0 |
| 20260831194838 | 20 | 278 | 3.2 | 12.9 | 0.00 | 0.00 | 0.00 | 69 | 1012.6 |
| 20260831194338 | 20 | 326 | 8.0 | 19.3 | 0.00 | 0.00 | 0.00 | 69 | 1012.5 |
| 20260831193819 | 20 | 281 | 8.0 | 14.5 | 0.00 | 0.00 | 0.00 | 68 | 1012.5 |
| 20260831193321 | 20 | 333 | 8.0 | 22.5 | 0.00 | 0.00 | 0.00 | 67 | 1012.4 |
| 20260831192824 | 21 | 286 | 6.4 | 22.5 | 0.00 | 0.00 | 0.00 | 65 | 1012.5 |
| 20260831192326 | 21 | 291 | 4.8 | 30.6 | 0.00 | 0.00 | 0.00 | 63 | 1012.3 |
| 20260831191829 | 22 | 284 | 6.4 | 30.6 | 0.00 | 0.00 | 0.00 | 62 | 1012.2 |
| 20260831191332 | 22 | 252 | 17.7 | 30.6 | 0.00 | 0.00 | 0.00 | 62 | 1012.0 |
| 20260831190813 | 22 | 288 | 11.3 | 20.9 | 0.00 | 0.00 | 0.00 | 62 | 1011.9 |
| 20260831190315 | 22 | 238 | 9.7 | 29.0 | 0.00 | 0.00 | 0.00 | 61 | 1011.7 |
| 20260831185817 | 22 | 165 | 9.7 | 29.0 | 0.00 | 0.00 | 0.00 | 61 | 1011.6 |
| 20260831185318 | 22 | 286 | 8.0 | 19.3 | 0.00 | 0.00 | 0.00 | 61 | 1011.7 |
| 20260831184821 | 22 | 252 | 6.4 | 16.1 | 0.00 | 0.00 | 0.00 | 60 | 1011.6 |
| 20260831184323 | 22 | 267 | 8.0 | 22.5 | 0.00 | 0.00 | 0.00 | 60 | 1011.5 |
| 20260831183825 | 22 | 219 | 11.3 | 22.5 | 0.00 | 0.00 | 0.00 | 60 | 1011.5 |
| 20260831183327 | 22 | 235 | 8.0 | 14.5 | 0.00 | 0.00 | 0.00 | 60 | 1011.2 |
| 20260831182830 | 22 | 206 | 3.2 | 9.7 | 0.00 | 0.00 | 0.00 | 60 | 1011.3 |
| 20260831182335 | 22 | 217 | 3.2 | 11.3 | 0.00 | 0.00 | 0.00 | 59 | 1011.2 |
| 20260831181818 | 22 | 257 | 4.8 | 11.3 | 0.00 | 0.00 | 0.00 | 59 | 1011.2 |
| 20260831180839 | 22 | 226 | 4.8 | 9.7 | 0.00 | 0.00 | 0.00 | 58 | 1011.2 |
| 20260831180323 | 22 | 258 | 3.2 | 9.7 | 0.00 | 0.00 | 0.00 | 58 | 1011.1 |